Home > Weather > Breda > Past weeks

Flag for Netherlands Weather for the Past 2 Weeks in Breda, Netherlands

Now
46 °F

Passing clouds.


Feels Like: 40 °F
Forecast: 45 / 48 °F
Wind: 16 mph from Southwest

Location: Gilze-Rijen

Current Time: Feb 7, 2016 at 7:44:10 PM

Latest Report: Feb 7, 2016 at 6:55 PM


Visibility: N/A

Pressure: 29.53 "Hg

Humidity: 66%

Dew point: 36 °F

Location of BredaLocation

Historic Weather in Breda — Graph

°F

Breda Temperature Yesterday

Maximum temperature yesterday: 52 °F (at 1:55 PM)
Minimum temperature yesterday: 48 °F (at 12:25 AM)
Average temperature yesterday: 50 °F

High & Low Weather Summary for the Past Weeks

 TemperatureHumidityPressure
High59 °F (Jan 25, 2:25 PM)100% (Jan 23, 9:55 PM)30.51 "Hg (Jan 23, 9:55 PM)
Low36 °F (Feb 4, 11:00 PM)48% (Jan 25, 3:55 PM)29.33 "Hg (Feb 7, 4:55 AM)
Average47 °F84%30.02 "Hg
* Reported Jan 23 6:25 PM — Feb 7 6:25 PM, Breda, Weather by CustomWeather, © 2016

Note: Actual official high and low records may vary slightly from our data, if they occured in-between our weather recording intervals... More about our weather records

Advertising

Breda Weather History for the Previous 24 Hours

 ConditionsComfort  
Time TempWeatherWind HumidityBarometerVisibility
6:25 PM
Sun, Feb 7
46 °FCool.16 mph66%29.56 "HgN/A
5:55 PM46 °FPassing clouds.15 mph66%29.56 "HgN/A
5:25 PM48 °FOvercast.15 mph62%29.56 "HgN/A
4:55 PM48 °FOvercast.16 mph62%29.53 "HgN/A
4:25 PM48 °FBroken clouds.14 mph66%29.53 "HgN/A
3:55 PM48 °FBroken clouds.15 mph62%29.53 "HgN/A
3:25 PM48 °FMostly cloudy.16 mph62%29.53 "HgN/A
2:55 PM48 °FPassing clouds.16 mph62%29.53 "HgN/A
2:25 PM48 °FBroken clouds.14 mph66%29.53 "HgN/A
1:55 PM48 °FPartly sunny.15 mph66%29.50 "HgN/A
1:25 PM48 °FBroken clouds.15 mph66%29.50 "HgN/A
12:55 PM46 °FMostly cloudy.12 mph71%29.50 "HgN/A
12:25 PM48 °FBroken clouds.16 mph71%29.50 "HgN/A
11:55 AM48 °FCloudy.15 mph71%29.47 "HgN/A
11:25 AM48 °FPassing clouds.14 mph71%29.47 "HgN/A
10:55 AM46 °FBroken clouds.13 mph82%29.47 "HgN/A
10:25 AM46 °FPassing clouds.12 mph82%29.47 "HgN/A
9:59 AM46 °FScattered clouds.12 mph82%29.47 "HgN/A
9:55 AM46 °FBroken clouds.10 mph82%29.47 "HgN/A
9:25 AM46 °FPartly sunny.9 mph82%29.45 "HgN/A
8:55 AM45 °FPassing clouds.10 mph93%29.45 "HgN/A
8:25 AM45 °FOvercast.9 mph93%29.42 "HgN/A
7:55 AM45 °FPassing clouds.9 mph93%29.42 "HgN/A
7:25 AM45 °FPartly cloudy.8 mph93%29.39 "HgN/A
6:55 AM45 °FDrizzle. Mostly cloudy.9 mph93%29.39 "HgN/A
6:25 AM50 °FSprinkles. Partly cloudy.17 mph82%29.36 "HgN/A
5:55 AM52 °FDrizzle. Mostly cloudy.16 mph77%29.33 "HgN/A
5:25 AM52 °FDrizzle. Mostly cloudy.16 mph72%29.33 "HgN/A
4:55 AM52 °FDrizzle. Mostly cloudy.16 mph72%29.33 "HgN/A
3:55 AM52 °FPassing clouds.18 mph67%29.36 "HgN/A
3:25 AM54 °FMostly cloudy.17 mph63%29.36 "HgN/A
2:55 AM54 °FPartly cloudy.17 mph63%29.39 "HgN/A
2:25 AM52 °FPartly cloudy.16 mph67%29.39 "HgN/A
1:55 AM52 °FPassing clouds.14 mph67%29.39 "HgN/A
1:25 AM52 °FOvercast.15 mph67%29.39 "HgN/A
12:55 AM52 °FPassing clouds.16 mph67%29.42 "HgN/A
12:25 AM50 °FCool.15 mph71%29.42 "HgN/A
11:55 PM
Sat, Feb 6
52 °FPassing clouds.17 mph67%29.45 "HgN/A
11:25 PM50 °FCool.17 mph71%29.45 "HgN/A
10:55 PM50 °FCool.16 mph71%29.45 "HgN/A
9:55 PM50 °FCool.15 mph67%29.47 "HgN/A
9:25 PM50 °FCool.14 mph71%29.50 "HgN/A
8:55 PM50 °FCool.15 mph71%29.50 "HgN/A
8:25 PM50 °FCool.15 mph71%29.53 "HgN/A
7:55 PM50 °FPassing clouds.15 mph71%29.56 "HgN/A
7:25 PM50 °FCool.14 mph71%29.56 "HgN/A
Weather by CustomWeather, © 2016

See weather overviewHow to use our weather pages